SCP
0 0 0 0 0 0 0 0 0 0 0 0 0 0 0 0 0 0 0 0 0 0 0 0 0 0 0 0 -0 0 0 0 -0 -0 0 -0 -0 0 0 -0 -0 -0 0 0
0 0 0 0 0 0 0 0 0 0 0 0 0 0 0 0 0 0 0 0 0 0 0 0 0 0 0 0 0 0 0 0 -0 -0 0 0 0 0 -0 -0 -0 -0 0 0
0 0 0 0 0 0 0 0 0 0 0 0 0 0 0 0 0 0 0 0 0 0 0 0 0 0 0 0 0 -0 0 0 0 0 0 0 0 0 0 0 -0 -0 0 0
0 0 0 0 0 0 0 0 0 0 0 0 0 0 0 0 0 0 0 0 0 0 0 0 0 0 0 0 0 0 -0 -0 0 0 0 0 0 0 0 0 0 0 0 0
0 0 0 0 0 0 0 0 0 0 0 0 0 0 0 0 0 0 0 0 0 0 0 0 0 0 0 0 0 0 0 0 -0 0 0 0 -0 -0 -0 0 0 0 0 0
0 0 0 0 0 0 0 0 0 0 0 0 0 0 0 0 0 0 0 0 0 0 0 0 0 0 0 0 -0 0 0 -0 0 0 0 0 -0 -0 -0 -0 -0 0 0 0
0 0 0 0 0 0 0 0 0 0 0 0 0 0 0 0 0 0 0 0 0 0 0 0 0 0 0 -0 0 -0 -0 -0 0 0 0 0 0 0 -0 -0 -0 -0 0 0
0 0 0 0 0 0 0 0 0 0 0 0 0 0 0 0 0 0 0 0 0 -0 0 0 0 -0 -0 0 0 -0 -0 0 0 0 0 0 0 0 0 -0 -0 -0 -0 0
0 0 0 0 0 0 0 0 0 0 0 0 0 0 0 0 0 0 0 0 -0 -0 0 0 0 0 0 -0 -0 0 0 0 -0 0 -0 0 0 0 0 -0 0 0 0 -0
0 0 0 0 0 0 0 0 0 0 0 0 0 0 0 0 0 0 0 0 0 0 0 0 0 0 -0 -0 -0 0 0 0 0 -0 0 0 0 -0 -0 0 0 -0 -0 -0
0 0 0 0 0 0 0 0 0 0 0 0 0 0 0 0 0 0 0 0 0 0 0 0 0 0 -0 -0 -0 -0 0 0 0 0 0 0 -0 -0 0 -0 -0 -0 -0 -0
0 0 0 0 0 0 0 0 0 0 0 0 0 0 0 0 0 0 0 0 0 0 0 0 0 0 0 0 -0 -0 -0 0 0 0 0 0 0 0 0 0 0 0 0 -0
0 0 0 0 0 0 0 0 0 0 0 0 0 0 0 0 0 0 0 0 0 0 0 0 0 0 0 0 0 -0 -0 0 -0 0 0 0 0 0 0 0 0 0 -0 -0
0 0 0 0 0 0 0 0 0 0 0 0 0 0 0 0 -0 0 -0 -0 0 0 -0 0 0 0 0 0 0 0 0 -0 -0 -0 -0 0 0 0 0 0 0 0 0 0
0 0 0 0 0 0 0 0 0 0 0 0 0 0 0 0 0 0 0 -0 0 0 0 0 0 0 0 0 0 0 0 0 0 0 0 -0 0 0 0 0 0 0 0 0
0 0 0 0 0 0 0 0 0 0 0 0 0 0 0 0 0 0 -0 0 0 0 0 0 0 0 0 0 0 0 0 0 0 0 0 0 0 0 0 0 0 0 0 0
0 0 0 0 0 0 0 0 0 0 0 0 0 0 0 0 0 0 0 0 0 0 0 0 0 0 0 0 0 0 0 0 0 0 0 -0 0 0 0 -0 -0 0 0 0
0 0 0 0 0 0 0 0 0 0 0 0 0 0 0 0 0 0 0 0 0 0 0 0 0 0 0 0 0 -0 0 0 0 0 0 0 -0 -0 -0 -0 -0 -0 -0 -0
0 0 0 0 0 0 0 0 0 0 0 0 0 0 0 0 0 0 0 0 0 0 0 0 0 0 0 0 0 0 0 0 0 0 0 0 0 -0 -0 0 0 -0 -0 0
0 0 0 0 0 0 0 0 0 0 0 0 0 0 0 0 0 0 0 0 0 0 0 0 0 0 0 0 0 0 0 0 0 0 -0 0 0 0 0 0 0 0 0 0
0 0 0 0 0 0 0 0 0 0 0 0 0 0 0 0 0 0 0 0 0 0 0 0 0 0 0 0 0 0 0 0 0 0 0 0 0 0 0 0 0 0 0 0
0 0 0 0 0 0 0 0 0 0 0 0 0 0 0 0 0 0 0 0 0 0 0 0 0 0 0 0 0 0 0 0 0 0 0 0 0 0 0 0 0 0 0 0
0 0 0 0 0 0 0 0 0 0 0 0 0 0 0 0 0 0 0 0 0 0 0 0 0 0 0 0 0 0 0 0 0 0 0 0 0 0 0 0 0 0 0 0
0 0 0 0 0 0 0 0 0 0 0 0 0 0 0 0 0 0 0 0 0 0 0 0 0 0 0 0 0 0 0 0 0 0 0 0 0 0 0 0 0 0 0 0
0 0 0 0 0 0 0 0 0 0 0 0 0 0 0 0 0 0 0 0 0 0 0 0 0 0 0 0 0 0 0 0 0 0 0 0 0 0 0 0 0 0 0 0
0 0 0 0 0 0 0 0 0 0 0 0 0 0 0 0 0 0 0 0 0 0 0 0 0 0 0 0 0 0 0 0 0 0 0 0 0 0 0 0 0 0 0 0
0 0 0 0 0 0 0 0 0 0 0 0 0 0 0 0 0 0 0 0 0 0 0 0 0 0 0 0 0 0 0 0 0 0 0 0 0 0 0 0 0 0 0 0
Wind_Speed_500mb
44 37 34 32 30 24 17 7 2 15 13 2 4 2 9 5 7 3 6 5 8 8 8 9 9 9 8 28 36 20 5 8 2 3 5 7 8 19 26 9 11 16 5 5
47 41 38 37 34 29 19 6 8 14 17 4 4 5 7 6 4 6 6 6 7 5 7 10 9 8 16 27 20 23 12 6 5 2 4 9 6 7 10 11 11 5 5 5
51 46 44 42 38 35 29 7 2 7 13 6 11 7 6 6 9 8 2 7 7 9 5 8 11 13 10 33 25 50 25 4 10 5 4 5 5 5 11 16 6 5 6 15
56 51 49 48 44 39 31 12 6 9 5 5 6 7 6 4 5 7 4 3 2 5 7 10 7 8 19 13 20 21 16 7 4 4 10 5 10 2 5 6 3 6 21 17
62 57 56 54 50 44 38 11 11 9 7 13 10 5 8 8 5 6 5 5 8 6 7 9 14 19 9 7 13 12 11 7 7 9 14 20 23 31 12 7 6 7 14 10
65 61 60 58 58 53 22 29 15 6 6 7 7 8 10 13 5 9 10 4 5 9 10 18 39 37 37 20 13 8 11 11 8 4 8 7 11 27 26 16 22 10 13 11
71 67 66 64 62 60 35 28 21 11 5 7 9 10 10 11 7 5 9 10 4 6 35 35 15 16 25 23 18 11 11 14 4 6 8 10 6 2 12 27 20 19 19 20
75 71 70 67 63 61 54 28 20 12 4 10 5 9 6 6 4 4 9 12 11 29 19 8 12 9 13 9 7 14 6 6 5 5 6 5 4 6 7 9 18 15 14 17
80 76 73 69 65 61 58 44 33 11 17 14 8 13 12 7 5 9 10 11 13 11 6 9 6 3 6 14 25 5 10 8 6 6 8 4 4 7 9 5 14 15 20 19
85 80 77 72 68 63 57 49 40 24 7 9 21 7 10 12 6 4 7 8 5 8 5 6 4 3 5 8 8 12 11 8 9 9 6 6 7 25 5 7 3 11 17 19
87 84 81 75 70 65 60 52 44 36 10 24 19 14 11 12 8 7 6 5 4 7 7 6 6 3 5 4 7 5 6 5 6 5 8 5 27 8 9 1 2 4 13 17
91 88 84 78 72 66 63 52 47 39 12 13 22 17 14 13 10 8 7 3 2 6 6 1 4 3 4 3 3 6 5 6 4 8 6 2 8 9 8 7 6 9 11 12
93 91 88 81 74 67 64 53 51 41 14 10 19 15 18 15 13 12 4 6 5 4 2 11 5 4 5 3 8 4 6 1 4 8 6 1 10 17 14 14 13 13 14 15
96 94 91 83 75 70 65 59 51 45 15 10 13 20 20 19 16 13 8 5 8 9 5 4 5 5 10 6 6 6 8 3 7 9 12 7 14 10 16 9 8 9 11 12
94 94 91 84 76 70 63 52 48 54 13 12 10 20 16 17 15 17 14 12 12 6 1 3 5 4 3 3 1 8 15 11 8 8 9 4 5 5 12 5 9 14 20 19
98 94 91 83 79 71 60 20 47 59 30 8 5 8 13 17 15 17 20 17 10 7 2 2 4 5 4 3 6 16 31 22 13 1 11 4 12 10 4 7 16 24 28 29
98 93 88 82 75 71 55 17 20 67 45 8 9 4 8 19 20 11 10 13 5 5 5 3 3 3 6 3 8 14 15 33 23 19 15 13 8 3 14 23 35 41 39 35
96 91 84 75 72 66 44 11 30 68 38 10 8 4 8 20 9 9 10 10 7 1 2 3 4 1 6 10 24 26 8 9 10 11 15 18 21 24 28 38 32 30 30 27
96 90 87 73 60 37 32 25 56 55 16 17 9 13 9 22 9 11 9 8 2 2 5 5 5 4 12 17 18 13 14 18 17 10 12 19 28 36 41 29 30 34 30 28
110 100 62 21 40 40 46 23 26 19 11 11 7 19 7 17 9 6 10 2 4 4 6 4 6 7 48 49 40 22 14 14 18 25 34 23 16 15 19 23 28 31 31 29
101 43 17 58 65 51 13 13 11 14 2 19 19 15 15 20 7 7 11 5 3 4 8 5 5 7 10 10 9 22 25 26 21 13 10 10 12 17 24 25 27 31 31 29
83 51 87 83 20 9 9 9 5 9 15 23 21 21 19 20 13 11 9 7 4 6 1 3 7 9 21 19 19 21 14 10 8 10 11 15 21 25 27 28 26 27 27 25
101 63 20 18 14 12 19 22 11 12 23 30 33 12 19 14 9 12 7 7 10 7 4 8 10 11 22 31 25 20 16 8 5 8 12 16 20 22 22 22 24 23 21 20
27 18 19 16 13 16 11 8 13 21 31 59 55 22 13 12 7 6 10 6 5 4 5 13 6 37 36 34 25 16 11 6 3 8 14 15 16 19 17 14 12 12 12 10
16 18 15 18 11 8 32 45 45 34 77 81 38 20 14 4 9 5 8 5 11 13 11 7 21 46 46 36 28 20 13 7 2 7 11 14 15 12 9 6 7 8 7 5
22 17 9 17 14 3 17 31 41 65 80 64 18 9 8 5 11 9 18 17 15 9 8 23 43 56 43 37 28 18 9 3 3 5 8 10 8 4 1 3 4 5 3 1
18 6 19 27 25 31 36 51 49 89 76 8 8 12 9 8 6 6 9 11 8 17 37 47 54 56 47 34 23 13 7 3 2 4 6 6 5 6 4 1 2 4 4 5
Wind_Direction_500mb
220 212 205 201 200 202 201 171 35 184 174 121 59 163 200 305 285 152 238 246 256 267 286 289 282 313 284 331 324 315 229 289 332 310 284 249 180 191 196 175 208 202 223 16
215 212 201 199 198 194 186 187 175 174 180 155 247 270 279 252 266 228 196 245 209 295 287 299 284 301 308 318 326 341 344 309 319 39 22 16 72 134 175 231 307 295 87 156
212 210 200 198 196 193 190 176 72 166 187 187 144 163 267 279 233 261 295 275 330 311 277 211 300 305 310 322 320 333 337 333 333 79 353 333 273 172 170 196 238 210 129 140
209 208 199 197 194 194 186 205 232 175 208 240 161 160 167 244 284 242 246 341 138 280 281 314 273 303 309 303 3 330 350 317 327 21 353 65 18 91 147 173 287 292 152 127
207 207 198 195 193 191 193 200 168 159 147 131 123 216 228 197 253 217 255 210 294 202 235 197 296 316 321 321 328 320 338 308 328 355 7 84 50 22 10 53 9 53 105 68
207 204 197 196 195 191 190 206 204 189 152 132 117 221 205 189 154 250 256 277 299 249 244 259 273 271 271 272 306 312 317 328 351 320 327 343 23 355 12 57 21 343 44 17
207 203 197 197 198 199 197 200 187 180 234 189 208 183 210 176 190 249 289 268 229 299 310 304 284 267 268 266 282 276 303 333 13 305 341 50 53 33 63 61 47 41 32 18
206 202 198 198 200 200 203 206 190 195 154 196 230 190 199 152 207 248 258 265 266 314 325 9 8 341 2 322 298 320 316 319 349 61 31 110 59 17 10 8 37 15 14 16
206 201 198 197 199 200 203 210 207 204 139 232 156 160 180 184 187 340 250 276 303 335 57 55 75 347 270 315 330 359 1 46 103 14 83 85 285 298 343 226 49 7 13 15
205 200 197 196 198 199 202 208 208 207 226 161 166 164 175 176 152 167 291 324 316 3 46 74 94 256 312 343 328 334 339 356 40 20 81 320 315 314 326 73 76 351 27 40
203 198 195 195 196 196 198 204 204 203 208 176 191 175 161 161 181 141 147 18 308 37 70 109 226 142 258 302 265 283 341 60 6 25 57 347 357 359 75 198 125 41 37 38
201 196 193 194 193 194 196 200 198 200 200 170 190 195 188 195 172 170 159 176 210 170 96 130 113 22 21 180 301 319 316 186 213 174 212 340 11 72 60 32 59 21 17 10
198 193 192 192 192 192 195 197 194 188 177 154 172 187 185 182 182 179 209 188 185 212 155 159 182 152 126 151 249 285 251 234 236 36 299 222 357 92 89 89 66 36 32 30
196 190 191 191 190 191 194 197 194 186 167 139 189 194 190 198 191 194 190 198 162 164 184 91 127 143 190 204 237 229 223 62 202 269 285 121 146 83 32 37 19 27 20 11
192 189 189 188 189 187 191 199 200 194 198 156 138 175 191 202 199 200 199 199 176 165 33 63 229 182 168 312 268 249 192 194 163 228 181 161 173 197 336 340 345 338 335 328
189 187 186 185 187 183 178 193 209 200 194 159 109 184 179 180 182 183 176 180 191 157 153 232 264 213 174 139 237 253 212 215 204 184 186 249 300 294 220 323 328 322 318 308
186 184 181 183 181 179 176 191 188 192 190 184 102 123 166 153 143 135 148 178 213 196 166 197 266 268 222 187 228 259 232 222 219 230 264 281 242 193 293 303 311 309 305 301
181 177 176 176 174 179 192 196 170 175 172 184 122 126 161 171 142 121 149 172 162 240 204 179 227 239 231 254 240 246 240 165 195 228 223 250 275 278 291 308 307 304 306 311
172 166 171 164 172 177 179 158 159 170 177 169 140 146 190 165 135 121 145 173 51 203 235 227 186 244 228 229 246 237 231 213 186 188 223 261 277 287 300 303 308 308 312 304
160 160 145 176 173 162 146 139 167 178 226 198 115 130 134 157 136 116 129 188 197 183 239 256 224 253 256 262 252 250 214 232 242 272 279 274 269 263 284 302 311 309 309 305
150 156 138 143 142 139 154 145 161 192 280 189 151 144 135 172 128 155 177 174 222 158 254 210 259 272 241 236 222 219 232 236 239 226 213 229 256 270 287 299 299 300 304 304
162 150 133 133 137 131 144 187 155 189 205 166 142 142 132 145 148 112 157 144 101 234 143 170 255 250 213 168 155 154 152 164 204 230 248 268 281 290 299 305 302 296 296 293
135 122 145 136 174 173 190 190 199 178 160 164 153 128 133 128 137 105 111 101 207 119 159 231 232 256 185 189 188 173 171 181 221 262 277 287 294 298 302 302 301 297 291 282
140 138 146 190 180 220 192 150 138 152 154 148 140 116 126 128 101 127 111 233 121 115 224 232 234 207 172 173 177 181 181 196 251 298 306 308 306 304 308 314 316 312 300 273
132 146 184 196 153 106 161 144 130 140 147 142 125 87 108 118 115 92 114 119 230 209 227 227 198 175 176 175 177 181 180 186 254 300 301 307 314 318 321 319 333 337 319 264
148 170 123 148 112 108 155 149 132 146 148 142 118 120 115 179 136 143 207 156 217 232 208 198 167 169 171 172 173 170 171 191 257 287 305 315 324 342 24 323 346 11 359 273
147 159 178 162 122 150 157 148 148 155 151 146 136 133 165 101 93 233 197 207 215 206 182 165 163 163 164 166 166 170 185 209 292 313 330 353 40 87 97 122 75 85 84 103
Wind_Speed_850mb
44 37 34 32 30 24 17 7 2 15 13 2 4 2 9 5 7 3 6 5 8 8 8 9 9 9 8 28 36 20 5 8 2 3 5 7 8 19 26 9 11 16 5 5
47 41 38 37 34 29 19 6 8 14 17 4 4 5 7 6 4 6 6 6 7 5 7 10 9 8 16 27 20 23 12 6 5 2 4 9 6 7 10 11 11 5 5 5
51 46 44 42 38 35 29 7 2 7 13 6 11 7 6 6 9 8 2 7 7 9 5 8 11 13 10 33 25 50 25 4 10 5 4 5 5 5 11 16 6 5 6 15
56 51 49 48 44 39 31 12 6 9 5 5 6 7 6 4 5 7 4 3 2 5 7 10 7 8 19 13 20 21 16 7 4 4 10 5 10 2 5 6 3 6 21 17
62 57 56 54 50 44 38 11 11 9 7 13 10 5 8 8 5 6 5 5 8 6 7 9 14 19 9 7 13 12 11 7 7 9 14 20 23 31 12 7 6 7 14 10
65 61 60 58 58 53 22 29 15 6 6 7 7 8 10 13 5 9 10 4 5 9 10 18 39 37 37 20 13 8 11 11 8 4 8 7 11 27 26 16 22 10 13 11
71 67 66 64 62 60 35 28 21 11 5 7 9 10 10 11 7 5 9 10 4 6 35 35 15 16 25 23 18 11 11 14 4 6 8 10 6 2 12 27 20 19 19 20
75 71 70 67 63 61 54 28 20 12 4 10 5 9 6 6 4 4 9 12 11 29 19 8 12 9 13 9 7 14 6 6 5 5 6 5 4 6 7 9 18 15 14 17
80 76 73 69 65 61 58 44 33 11 17 14 8 13 12 7 5 9 10 11 13 11 6 9 6 3 6 14 25 5 10 8 6 6 8 4 4 7 9 5 14 15 20 19
85 80 77 72 68 63 57 49 40 24 7 9 21 7 10 12 6 4 7 8 5 8 5 6 4 3 5 8 8 12 11 8 9 9 6 6 7 25 5 7 3 11 17 19
87 84 81 75 70 65 60 52 44 36 10 24 19 14 11 12 8 7 6 5 4 7 7 6 6 3 5 4 7 5 6 5 6 5 8 5 27 8 9 1 2 4 13 17
91 88 84 78 72 66 63 52 47 39 12 13 22 17 14 13 10 8 7 3 2 6 6 1 4 3 4 3 3 6 5 6 4 8 6 2 8 9 8 7 6 9 11 12
93 91 88 81 74 67 64 53 51 41 14 10 19 15 18 15 13 12 4 6 5 4 2 11 5 4 5 3 8 4 6 1 4 8 6 1 10 17 14 14 13 13 14 15
96 94 91 83 75 70 65 59 51 45 15 10 13 20 20 19 16 13 8 5 8 9 5 4 5 5 10 6 6 6 8 3 7 9 12 7 14 10 16 9 8 9 11 12
94 94 91 84 76 70 63 52 48 54 13 12 10 20 16 17 15 17 14 12 12 6 1 3 5 4 3 3 1 8 15 11 8 8 9 4 5 5 12 5 9 14 20 19
98 94 91 83 79 71 60 20 47 59 30 8 5 8 13 17 15 17 20 17 10 7 2 2 4 5 4 3 6 16 31 22 13 1 11 4 12 10 4 7 16 24 28 29
98 93 88 82 75 71 55 17 20 67 45 8 9 4 8 19 20 11 10 13 5 5 5 3 3 3 6 3 8 14 15 33 23 19 15 13 8 3 14 23 35 41 39 35
96 91 84 75 72 66 44 11 30 68 38 10 8 4 8 20 9 9 10 10 7 1 2 3 4 1 6 10 24 26 8 9 10 11 15 18 21 24 28 38 32 30 30 27
96 90 87 73 60 37 32 25 56 55 16 17 9 13 9 22 9 11 9 8 2 2 5 5 5 4 12 17 18 13 14 18 17 10 12 19 28 36 41 29 30 34 30 28
110 100 62 21 40 40 46 23 26 19 11 11 7 19 7 17 9 6 10 2 4 4 6 4 6 7 48 49 40 22 14 14 18 25 34 23 16 15 19 23 28 31 31 29
101 43 17 58 65 51 13 13 11 14 2 19 19 15 15 20 7 7 11 5 3 4 8 5 5 7 10 10 9 22 25 26 21 13 10 10 12 17 24 25 27 31 31 29
83 51 87 83 20 9 9 9 5 9 15 23 21 21 19 20 13 11 9 7 4 6 1 3 7 9 21 19 19 21 14 10 8 10 11 15 21 25 27 28 26 27 27 25
101 63 20 18 14 12 19 22 11 12 23 30 33 12 19 14 9 12 7 7 10 7 4 8 10 11 22 31 25 20 16 8 5 8 12 16 20 22 22 22 24 23 21 20
27 18 19 16 13 16 11 8 13 21 31 59 55 22 13 12 7 6 10 6 5 4 5 13 6 37 36 34 25 16 11 6 3 8 14 15 16 19 17 14 12 12 12 10
16 18 15 18 11 8 32 45 45 34 77 81 38 20 14 4 9 5 8 5 11 13 11 7 21 46 46 36 28 20 13 7 2 7 11 14 15 12 9 6 7 8 7 5
22 17 9 17 14 3 17 31 41 65 80 64 18 9 8 5 11 9 18 17 15 9 8 23 43 56 43 37 28 18 9 3 3 5 8 10 8 4 1 3 4 5 3 1
18 6 19 27 25 31 36 51 49 89 76 8 8 12 9 8 6 6 9 11 8 17 37 47 54 56 47 34 23 13 7 3 2 4 6 6 5 6 4 1 2 4 4 5
Wind_Direction_850mb
220 212 205 201 200 202 201 171 35 184 174 121 59 163 200 305 285 152 238 246 256 267 286 289 282 313 284 331 324 315 229 289 332 310 284 249 180 191 196 175 208 202 223 16
215 212 201 199 198 194 186 187 175 174 180 155 247 270 279 252 266 228 196 245 209 295 287 299 284 301 308 318 326 341 344 309 319 39 22 16 72 134 175 231 307 295 87 156
212 210 200 198 196 193 190 176 72 166 187 187 144 163 267 279 233 261 295 275 330 311 277 211 300 305 310 322 320 333 337 333 333 79 353 333 273 172 170 196 238 210 129 140
209 208 199 197 194 194 186 205 232 175 208 240 161 160 167 244 284 242 246 341 138 280 281 314 273 303 309 303 3 330 350 317 327 21 353 65 18 91 147 173 287 292 152 127
207 207 198 195 193 191 193 200 168 159 147 131 123 216 228 197 253 217 255 210 294 202 235 197 296 316 321 321 328 320 338 308 328 355 7 84 50 22 10 53 9 53 105 68
207 204 197 196 195 191 190 206 204 189 152 132 117 221 205 189 154 250 256 277 299 249 244 259 273 271 271 272 306 312 317 328 351 320 327 343 23 355 12 57 21 343 44 17
207 203 197 197 198 199 197 200 187 180 234 189 208 183 210 176 190 249 289 268 229 299 310 304 284 267 268 266 282 276 303 333 13 305 341 50 53 33 63 61 47 41 32 18
206 202 198 198 200 200 203 206 190 195 154 196 230 190 199 152 207 248 258 265 266 314 325 9 8 341 2 322 298 320 316 319 349 61 31 110 59 17 10 8 37 15 14 16
206 201 198 197 199 200 203 210 207 204 139 232 156 160 180 184 187 340 250 276 303 335 57 55 75 347 270 315 330 359 1 46 103 14 83 85 285 298 343 226 49 7 13 15
205 200 197 196 198 199 202 208 208 207 226 161 166 164 175 176 152 167 291 324 316 3 46 74 94 256 312 343 328 334 339 356 40 20 81 320 315 314 326 73 76 351 27 40
203 198 195 195 196 196 198 204 204 203 208 176 191 175 161 161 181 141 147 18 308 37 70 109 226 142 258 302 265 283 341 60 6 25 57 347 357 359 75 198 125 41 37 38
201 196 193 194 193 194 196 200 198 200 200 170 190 195 188 195 172 170 159 176 210 170 96 130 113 22 21 180 301 319 316 186 213 174 212 340 11 72 60 32 59 21 17 10
198 193 192 192 192 192 195 197 194 188 177 154 172 187 185 182 182 179 209 188 185 212 155 159 182 152 126 151 249 285 251 234 236 36 299 222 357 92 89 89 66 36 32 30
196 190 191 191 190 191 194 197 194 186 167 139 189 194 190 198 191 194 190 198 162 164 184 91 127 143 190 204 237 229 223 62 202 269 285 121 146 83 32 37 19 27 20 11
192 189 189 188 189 187 191 199 200 194 198 156 138 175 191 202 199 200 199 199 176 165 33 63 229 182 168 312 268 249 192 194 163 228 181 161 173 197 336 340 345 338 335 328
189 187 186 185 187 183 178 193 209 200 194 159 109 184 179 180 182 183 176 180 191 157 153 232 264 213 174 139 237 253 212 215 204 184 186 249 300 294 220 323 328 322 318 308
186 184 181 183 181 179 176 191 188 192 190 184 102 123 166 153 143 135 148 178 213 196 166 197 266 268 222 187 228 259 232 222 219 230 264 281 242 193 293 303 311 309 305 301
181 177 176 176 174 179 192 196 170 175 172 184 122 126 161 171 142 121 149 172 162 240 204 179 227 239 231 254 240 246 240 165 195 228 223 250 275 278 291 308 307 304 306 311
172 166 171 164 172 177 179 158 159 170 177 169 140 146 190 165 135 121 145 173 51 203 235 227 186 244 228 229 246 237 231 213 186 188 223 261 277 287 300 303 308 308 312 304
160 160 145 176 173 162 146 139 167 178 226 198 115 130 134 157 136 116 129 188 197 183 239 256 224 253 256 262 252 250 214 232 242 272 279 274 269 263 284 302 311 309 309 305
150 156 138 143 142 139 154 145 161 192 280 189 151 144 135 172 128 155 177 174 222 158 254 210 259 272 241 236 222 219 232 236 239 226 213 229 256 270 287 299 299 300 304 304
162 150 133 133 137 131 144 187 155 189 205 166 142 142 132 145 148 112 157 144 101 234 143 170 255 250 213 168 155 154 152 164 204 230 248 268 281 290 299 305 302 296 296 293
135 122 145 136 174 173 190 190 199 178 160 164 153 128 133 128 137 105 111 101 207 119 159 231 232 256 185 189 188 173 171 181 221 262 277 287 294 298 302 302 301 297 291 282
140 138 146 190 180 220 192 150 138 152 154 148 140 116 126 128 101 127 111 233 121 115 224 232 234 207 172 173 177 181 181 196 251 298 306 308 306 304 308 314 316 312 300 273
132 146 184 196 153 106 161 144 130 140 147 142 125 87 108 118 115 92 114 119 230 209 227 227 198 175 176 175 177 181 180 186 254 300 301 307 314 318 321 319 333 337 319 264
148 170 123 148 112 108 155 149 132 146 148 142 118 120 115 179 136 143 207 156 217 232 208 198 167 169 171 172 173 170 171 191 257 287 305 315 324 342 24 323 346 11 359 273
147 159 178 162 122 150 157 148 148 155 151 146 136 133 165 101 93 233 197 207 215 206 182 165 163 163 164 166 166 170 185 209 292 313 330 353 40 87 97 122 75 85 84 103